VK2RZ Weather Reports


time (UTC)temp
F
wind
direction
speed
knots
gust
knots
rain 1hr
in
rain 24hr
in
rain mn
in
humidity
%
barometer
mb
20260903035434 79 228 8.7 13.0 0.00 0.00 0.00 3 1010.5
20260903034437 79 218 4.3 8.7 0.00 0.00 0.00 3 1010.5
20260903032434 80 256 7.8 13.0 0.00 0.00 0.00 3 1010.4
20260903031437 79 233 2.6 11.3 0.00 0.00 0.00 3 1010.3
20260903030438 79 252 7.8 12.2 0.00 0.00 0.00 3 1010.2
20260903025434 79 251 3.5 13.9 0.00 0.00 0.00 3 1010.2
20260903024437 79 212 2.6 13.0 0.00 0.00 0.00 3 1010.3
20260903021435 79 247 7.8 10.4 0.00 0.00 0.00 3 1010.3
20260903020438 79 190 7.0 13.0 0.00 0.00 0.00 3 1010.5
20260903015435 78 198 6.1 13.9 0.00 0.00 0.00 3 1010.3
20260903014435 78 185 5.2 11.3 0.00 0.00 0.00 3 1010.5
20260903013433 78 202 7.0 13.0 0.00 0.00 0.00 3 1010.4
20260903012437 79 252 4.3 12.2 0.00 0.00 0.00 3 1010.3
20260903011433 79 210 3.5 12.2 0.00 0.00 0.00 3 1010.3
20260903010437 79 260 7.0 13.9 0.00 0.00 0.00 3 1010.1
20260903005434 79 216 5.2 13.0 0.00 0.00 0.00 3 1010.2
20260903004437 78 293 13.0 14.8 0.00 0.00 0.00 3 1010.3
20260903003435 78 238 4.3 13.9 0.00 0.00 0.00 4 1010.4
20260903002432 78 216 8.7 13.9 0.00 0.00 0.00 4 1010.1
20260903001436 78 254 7.8 12.2 0.00 0.00 0.00 4 1010.0
20260903000435 78 224 6.1 14.8 0.00 0.00 0.00 4 1010.1
20260902235433 77 233 4.3 10.4 0.00 0.00 0.00 4 1010.1
20260902234435 78 231 4.3 19.1 0.00 0.00 0.00 4 1010.0
20260902233435 77 231 4.3 10.4 0.00 0.00 0.00 4 1009.8
20260902232436 77 210 0.9 11.3 0.00 0.00 0.00 4 1009.7
20260902231435 76 292 2.6 9.6 0.00 0.00 0.00 4 1009.6
20260902230432 76 209 3.5 9.6 0.00 0.00 0.00 4 1009.5
20260902225435 75 353 4.3 4.3 0.00 0.00 0.00 4 1009.4
20260902224432 74 131 3.5 4.3 0.00 0.00 0.00 5 1009.4
20260902222436 73 71 1.7 3.5 0.00 0.00 0.00 5 1009.5
20260902221436 72 20 1.7 4.3 0.00 0.00 0.00 5 1009.7
20260902220435 71 50 1.7 2.6 0.00 0.00 0.00 5 1009.8
20260902215435 70 0 0.0 3.5 0.00 0.00 0.00 5 1009.8
20260902214432 70 125 0.9 2.6 0.00 0.00 0.00 5 1009.7
20260902213435 69 0 0.0 3.5 0.00 0.00 0.00 5 1009.6
20260902212435 68 129 1.7 3.5 0.00 0.00 0.00 5 1009.6
20260902211432 66 110 2.6 3.5 0.00 0.00 0.00 6 1009.5
20260902210432 66 104 0.9 2.6 0.00 0.00 0.00 6 1009.6
20260902205432 65 93 2.6 2.6 0.00 0.00 0.00 6 1009.6
20260902204436 64 93 0.9 1.7 0.00 0.00 0.00 6 1009.5
20260902203432 65 0 0.0 1.7 0.00 0.00 0.00 6 1009.5
20260902202433 65 0 0.0 3.5 0.00 0.00 0.00 6 1009.8
20260902201432 64 91 3.5 3.5 0.00 0.00 0.00 6 1009.9
20260902200432 65 87 3.5 7.0 0.00 0.00 0.00 6 1009.9
20260902195436 64 0 0.0 2.6 0.00 0.00 0.00 6 1009.7
20260902194432 65 209 0.9 1.7 0.00 0.00 0.00 6 1010.1
20260902193432 65 229 2.6 2.6 0.00 0.00 0.00 6 1010.2
20260902192433 65 230 1.7 1.7 0.00 0.00 0.00 6 1010.3
20260902191432 65 230 1.7 1.7 0.00 0.00 0.00 6 1010.7
20260902190432 65 0 0.0 0.0 0.00 0.00 0.00 6 1010.9
20260902185432 67 230 1.7 3.5 0.00 0.00 0.00 6 1011.0
20260902184432 68 233 1.7 3.5 0.00 0.00 0.00 5 1011.2
20260902183436 68 265 1.7 8.7 0.00 0.00 0.00 5 1011.5
20260902182433 67 132 1.7 2.6 0.00 0.00 0.00 5 1010.9
20260902180432 67 132 1.7 1.7 0.00 0.00 0.00 5 1010.3
20260902174432 68 132 0.9 4.3 0.00 0.00 0.00 5 1010.4
20260902173432 68 175 0.9 5.2 0.00 0.00 0.00 5 1010.6
20260902172432 68 233 2.6 3.5 0.00 0.00 0.00 5 1010.8
20260902171433 68 132 1.7 7.8 0.00 0.00 0.00 5 1011.0
20260902170432 68 235 3.5 7.8 0.00 0.00 0.00 5 1010.9
20260902165433 68 233 0.9 7.8 0.00 0.00 0.00 5 1011.2
20260902164432 68 258 1.7 6.1 0.00 0.00 0.00 5 1011.2
20260902163432 68 191 0.9 9.6 0.00 0.00 0.00 5 1011.5
20260902162432 67 235 4.3 4.3 0.00 0.00 0.00 5 1011.7
20260902161433 67 252 3.5 4.3 0.00 0.00 0.00 5 1011.7
20260902160432 67 238 2.6 2.6 0.00 0.00 0.00 6 1011.8
20260902155432 66 231 0.9 3.5 0.00 0.00 0.00 6 1012.0
20260902154432 65 231 3.5 4.3 0.00 0.00 0.00 6 1012.2
20260902153431 67 261 0.9 3.5 0.00 0.00 0.00 6 1012.3
20260902152432 67 265 1.7 4.3 0.00 0.00 0.00 5 1012.4
20260902151431 66 274 2.6 3.5 0.00 0.00 0.00 5 1012.5
20260902150431 66 294 1.7 2.6 0.00 0.00 0.00 6 1012.6
20260902145431 65 247 0.9 3.5 0.00 0.00 0.00 6 1012.9
20260902144431 65 274 0.9 1.7 0.00 0.00 0.00 6 1012.9
20260902143432 66 274 1.7 3.5 0.00 0.00 0.00 5 1013.0
20260902142432 65 274 1.7 2.6 0.00 0.00 0.00 6 1013.1
20260902141431 65 274 0.9 2.6 0.00 0.00 0.00 6 1013.3
20260902140433 65 274 0.9 2.6 0.00 0.00 0.00 6 1013.4
20260902135431 65 0 0.0 1.7 0.00 0.00 0.00 6 1013.5
20260902134432 65 274 0.9 1.7 0.00 0.00 0.00 6 1013.4
20260902133431 65 274 0.9 1.7 0.00 0.00 0.00 5 1013.5
20260902132431 65 0 0.0 1.7 0.00 0.00 0.00 6 1013.7
20260902131432 64 275 0.9 1.7 0.00 0.00 0.00 6 1014.0
20260902130432 65 0 0.0 0.0 0.00 0.00 0.00 5 1013.9
20260902125430 65 0 0.0 0.0 0.00 0.00 0.00 5 1014.0
20260902124429 65 0 0.0 0.0 0.00 0.00 0.00 5 1014.1
20260902123429 65 0 0.0 0.0 0.00 0.00 0.00 5 1014.3
20260902122429 66 0 0.0 0.0 0.00 0.00 0.00 5 1014.4
20260902121429 66 0 0.0 0.0 0.00 0.00 0.00 5 1014.4
20260902120429 66 0 0.0 0.0 0.00 0.00 0.00 5 1014.7
20260902115429 66 0 0.0 0.0 0.00 0.00 0.00 5 1014.6
20260902114430 66 0 0.0 0.9 0.00 0.00 0.00 5 1014.6
20260902113429 67 0 0.0 0.9 0.00 0.00 0.00 5 1014.7
20260902112433 67 0 0.0 1.7 0.00 0.00 0.00 5 1014.9
20260902111430 68 275 0.9 1.7 0.00 0.00 0.00 5 1014.9
20260902110429 69 275 0.9 2.6 0.00 0.00 0.00 5 1015.0
20260902105429 69 275 1.7 2.6 0.00 0.00 0.00 5 1015.0
20260902104430 69 275 0.9 2.6 0.00 0.00 0.00 5 1014.9
20260902103429 69 276 1.7 3.5 0.00 0.00 0.00 5 1014.9
20260902102429 69 0 0.0 1.7 0.00 0.00 0.00 5 1014.7
20260902101429 70 276 0.9 1.7 0.00 0.00 0.00 5 1014.6
20260902100429 70 276 0.9 2.6 0.00 0.00 0.00 4 1014.6
20260902095430 71 277 1.7 3.5 0.00 0.00 0.00 4 1014.6
20260902094428 72 278 1.7 6.1 0.00 0.00 0.00 4 1014.5
20260902093428 72 249 4.3 5.2 0.00 0.00 0.00 4 1014.5
20260902092428 72 272 3.5 6.1 0.00 0.00 0.00 4 1014.4
20260902091428 71 255 3.5 6.1 0.00 0.00 0.00 4 1014.3
20260902090431 71 268 1.7 3.5 0.00 0.00 0.00 4 1014.2
20260902085427 71 273 0.9 3.5 0.00 0.00 0.00 4 1014.2
20260902084427 71 0 0.0 3.5 0.00 0.00 0.00 4 1014.2
20260902082427 72 285 0.9 5.2 0.00 0.00 0.00 4 1013.9
20260902080426 73 278 1.7 3.5 0.00 0.00 0.00 4 1013.7
20260902075427 73 0 0.0 6.1 0.00 0.00 0.00 4 1013.5
20260902074426 74 258 0.9 3.5 0.00 0.00 0.00 4 1013.4
20260902073426 74 304 0.9 2.6 0.00 0.00 0.00 4 1013.3
20260902072431 75 0 0.0 3.5 0.00 0.00 0.00 4 1013.1
20260902071425 76 281 2.6 5.2 0.00 0.00 0.00 4 1013.0
20260902070429 77 257 2.6 9.6 0.00 0.00 0.00 4 1013.0
20260902065431 77 276 0.9 8.7 0.00 0.00 0.00 3 1012.8
20260902063428 78 251 2.6 9.6 0.00 0.00 0.00 3 1012.7
20260902062429 78 272 7.0 11.3 0.00 0.00 0.00 3 1012.6
20260902060425 79 241 4.3 8.7 0.00 0.00 0.00 3 1012.7
20260902055431 80 207 3.5 11.3 0.00 0.00 0.00 3 1012.5
20260902054425 80 273 2.6 9.6 0.00 0.00 0.00 3 1012.5
20260902053425 80 245 7.0 8.7 0.00 0.00 0.00 3 1012.6
20260902052426 80 291 0.9 11.3 0.00 0.00 0.00 3 1012.6
20260902051431 81 202 5.2 10.4 0.00 0.00 0.00 3 1012.6
20260902050425 81 268 3.5 8.7 0.00 0.00 0.00 3 1012.7
20260902045432 80 289 9.6 13.0 0.00 0.00 0.00 3 1012.8
20260902044428 81 306 3.5 8.7 0.00 0.00 0.00 3 1012.8
20260902043428 81 243 7.8 11.3 0.00 0.00 0.00 3 1012.6
20260902042426 81 197 2.6 7.8 0.00 0.00 0.00 3 1012.6
20260902040428 80 229 3.5 7.0 0.00 0.00 0.00 3 1012.8